Location: Newark
(58.8333°N, 23.5833°E)
Time: 02:36:43
(UTC+00:00)

Explorer 7 - Pass Details

Date: 18 November 2019
Orbit: 485 x 680 km, 50.3° (Epoch: 10 December)

Event Time Altitude Azimuth Distance (km) Brightness Sun altitude
Rises 23:08:39 0° 213° (SSW) 2,911 - -49.1°
Reaches altitude 10° 23:11:45 10° 192° (SSW) 1,966 - -49.0°
Maximum altitude 23:14:31 16° 154° (SSE) 1,567 - -48.8°
Drops below altitude 10° 23:17:11 10° 116° (ESE) 1,893 - -48.7°
Sets 23:20:05 0° 95° (E) 2,748 - -48.5°
